Temperature
13 13 14 14 14 14 15 15 15 15 16 16 17 17 18 17 17 17 17 17 17 17 17 17 17 17 16 16 16 16 16 16 16 15 15 15 15 15
13 13 14 14 14 14 14 14 15 15 15 16 16 17 17 17 17 17 17 17 17 17 17 17 17 17 16 16 16 16 16 16 15 15 15 15 15 14
13 13 13 13 14 14 14 14 14 14 14 15 16 16 16 16 17 17 16 16 16 17 17 17 17 17 16 16 16 16 16 15 15 15 15 15 14 14
12 13 13 13 13 13 14 14 14 14 14 15 15 15 16 16 16 16 16 16 16 16 16 17 17 16 16 16 16 16 15 15 15 15 14 14 14 14
12 12 13 13 13 13 13 13 14 14 14 14 14 15 15 15 15 16 16 16 16 16 16 16 16 16 16 16 15 15 15 15 15 14 14 14 14 14
12 12 12 12 12 13 13 13 13 13 14 14 14 14 15 15 15 15 15 15 15 15 15 16 15 15 15 15 15 15 15 14 14 14 14 14 14 13
12 12 12 12 12 12 13 13 13 13 13 13 14 14 14 14 15 15 15 15 15 15 15 15 15 15 15 15 15 15 14 14 14 14 14 13 13 13
11 12 12 12 12 12 12 13 13 13 13 13 13 13 14 14 14 14 14 14 14 14 14 14 15 15 15 14 14 14 14 14 14 13 13 13 13 13
11 11 12 12 12 12 12 12 13 13 13 13 13 13 14 14 14 14 14 14 14 14 14 14 14 14 14 14 14 14 14 13 13 13 13 13 12 12
11 11 11 11 12 12 12 12 12 13 13 13 13 13 13 14 14 14 14 14 14 14 14 14 14 14 14 14 13 13 13 13 13 13 13 12 12 12
11 11 11 11 12 12 12 12 12 12 12 13 13 13 13 13 13 13 13 13 13 13 13 13 13 13 13 13 13 13 13 13 13 12 12 12 12 12
11 11 11 11 11 12 12 12 12 12 12 12 13 13 13 13 13 13 13 13 13 13 13 13 13 13 12 12 12 12 12 12 12 12 12 12 11 11
11 11 11 11 11 11 12 12 12 12 12 12 12 12 13 13 13 13 13 13 13 13 13 13 13 13 12 12 12 12 12 12 12 11 11 11 11 11
11 11 11 11 11 12 12 12 12 12 12 12 12 12 12 12 12 13 13 13 13 13 13 13 13 13 12 12 11 11 11 11 11 11 11 11 11 11
11 11 11 11 12 12 12 12 12 12 12 12 12 12 12 12 12 12 12 12 12 12 12 12 13 13 12 12 12 12 11 11 11 11 11 11 11 11
11 11 12 12 12 12 12 12 12 12 12 12 12 12 12 12 12 12 12 12 12 12 12 12 12 12 12 12 12 12 12 11 11 11 11 11 10 10
12 12 12 12 12 12 12 12 12 12 12 11 11 11 12 11 11 12 12 12 12 11 11 11 11 11 12 12 11 11 11 11 11 11 10 10 10 10
12 12 12 11 11 11 12 12 12 12 12 11 11 11 11 11 11 11 11 11 11 11 11 11 11 11 11 11 11 11 11 11 11 10 10 10 10 10
12 12 12 11 11 11 11 11 12 12 12 11 11 11 11 11 11 11 11 11 11 11 11 11 11 11 10 10 10 11 11 11 10 10 10 10 10 10
12 12 12 12 11 11 11 11 11 12 11 11 11 11 11 11 11 11 11 11 11 11 11 11 11 11 11 11 11 10 10 10 10 10 10 10 9 9
12 12 12 11 11 11 11 11 11 11 11 11 11 11 11 11 11 11 11 11 11 10 10 11 11 11 10 10 10 10 10 10 10 10 10 9 9 9
12 12 12 11 11 11 11 11 11 11 11 11 11 11 11 11 11 11 11 11 11 10 10 10 10 10 10 10 10 10 10 10 9 9 9 9 9 9
12 12 12 11 11 11 11 11 11 11 11 11 11 11 11 11 11 11 11 11 11 10 10 10 10 10 10 10 10 10 10 10 10 9 9 9 9 9
Wind_Speed
5 6 5 5 5 5 5 5 5 5 6 6 5 6 6 7 11 14 14 22 25 25 24 23 22 22 21 21 20 19 18 17 16 16 15 14 13 12
5 6 5 5 5 5 6 6 6 6 5 5 5 4 5 5 12 13 12 20 24 25 25 24 24 23 23 22 21 20 19 19 18 17 16 14 13 13
6 5 5 5 4 5 5 6 6 6 7 5 3 3 5 6 6 9 11 13 17 23 25 25 24 24 24 23 22 21 21 20 19 18 17 15 14 14
6 6 5 5 5 4 4 5 6 6 7 7 5 4 6 6 7 7 7 10 12 20 24 25 25 25 25 24 23 23 22 22 21 20 18 17 16 17
7 6 5 5 4 4 4 4 5 6 6 6 5 4 4 4 5 6 6 5 8 14 20 22 24 25 25 25 24 24 23 23 22 22 20 19 19 18
7 6 6 5 4 3 4 4 4 5 5 5 5 4 4 4 5 6 5 5 6 7 11 15 19 23 24 25 25 25 25 24 23 22 21 21 21 19
8 6 5 4 3 3 3 3 3 3 4 4 4 4 4 4 6 5 6 5 5 5 6 8 10 11 16 22 24 25 25 25 24 23 23 23 21 20
8 6 6 4 4 5 5 5 5 5 4 4 4 5 6 6 6 6 6 5 5 6 7 8 8 10 10 15 22 26 26 25 25 25 24 24 22 21
8 7 6 5 5 4 5 6 7 9 9 7 6 6 6 6 7 8 7 6 5 6 7 7 7 9 8 15 24 26 26 26 26 26 25 24 24 22
7 6 6 5 5 6 5 5 5 4 5 6 6 6 5 5 6 7 7 5 3 4 5 4 5 5 6 11 23 27 27 26 26 26 26 25 25 23
6 6 6 5 7 7 5 5 5 4 3 4 5 5 6 6 5 5 6 6 4 3 3 4 4 3 4 6 14 24 25 26 26 26 26 26 26 23
6 5 5 6 8 8 4 4 5 5 4 4 3 4 4 5 7 7 7 7 4 4 4 5 5 4 3 2 6 13 17 21 24 25 26 26 26 18
6 5 4 7 8 8 6 4 5 5 5 4 3 3 2 3 4 5 6 7 6 4 6 6 5 4 4 4 3 7 10 10 14 16 24 27 26 19
6 5 4 8 9 9 6 6 8 7 4 3 3 2 2 2 3 4 5 5 5 6 9 8 5 6 6 5 4 6 8 10 10 9 14 20 21 18
5 8 10 11 10 7 7 8 6 4 3 3 2 2 2 2 2 3 3 4 4 6 9 6 8 8 7 6 7 6 6 7 9 10 10 11 10 10
5 8 10 10 7 7 7 5 3 3 2 2 2 2 1 0 1 2 3 4 4 3 4 6 8 10 6 7 9 8 7 9 10 10 10 9 11 14
5 5 5 5 4 4 3 3 2 2 1 1 1 1 0 1 1 1 3 4 4 4 4 4 4 5 6 8 9 9 8 7 9 10 9 9 9 11
4 5 6 6 5 4 3 3 2 2 2 1 1 1 1 1 2 2 2 4 5 5 5 5 6 5 4 3 4 9 9 7 8 9 8 8 9 9
4 6 6 6 5 4 3 3 3 3 2 2 2 1 1 2 3 3 3 4 4 5 5 6 7 6 7 5 3 5 8 8 9 8 8 6 7 8
6 7 7 6 5 5 4 4 3 3 3 3 3 3 3 3 3 4 4 5 5 5 5 6 6 6 6 6 5 5 9 9 8 9 8 5 3 4
6 7 7 6 6 5 5 5 4 4 4 4 4 4 4 4 4 4 5 7 6 5 7 6 6 6 4 5 5 4 4 6 9 7 9 6 5 5
8 7 7 6 6 6 5 5 5 5 5 5 5 5 5 5 5 6 6 6 6 5 5 4 5 5 4 5 6 6 5 4 3 6 9 8 6 8
8 8 7 6 6 5 5 6 7 6 5 6 6 6 6 5 5 5 6 6 6 6 6 5 5 4 4 5 6 5 7 7 5 4 3 7 7 7
Wind_Direction
280 272 257 247 246 240 232 222 215 223 230 224 217 216 205 199 180 186 186 192 193 193 194 196 196 196 196 196 196 196 192 188 185 180 180 181 181 180
277 269 264 250 244 242 240 235 225 220 233 225 214 210 202 201 188 190 196 194 197 196 195 195 195 195 194 192 192 190 187 184 181 178 179 180 181 178
295 287 280 269 252 244 239 234 231 223 235 244 225 212 199 207 193 198 196 189 199 200 197 196 195 193 190 189 189 187 184 181 179 178 179 180 178 172
303 296 290 289 276 258 247 242 236 226 224 237 232 213 211 205 195 198 196 196 195 200 199 197 194 191 189 187 185 183 182 180 179 178 180 180 176 170
313 310 300 291 279 274 264 252 246 241 228 227 232 217 212 201 194 199 196 193 197 197 198 197 193 189 187 184 182 181 179 179 178 177 178 177 172 169
313 309 304 291 277 280 275 265 255 248 240 230 226 218 211 201 190 196 198 195 195 189 192 194 193 188 184 182 181 179 178 178 177 176 176 174 171 170
313 311 308 297 289 281 278 275 270 254 251 238 230 221 211 193 199 192 197 189 194 183 178 184 185 187 187 184 182 179 178 178 178 177 174 171 169 168
315 315 310 301 293 279 272 268 257 251 247 240 233 226 220 207 200 196 190 184 199 184 183 191 182 186 186 185 184 179 178 178 176 173 170 169 167 166
316 320 323 332 341 323 291 276 265 254 240 236 240 235 226 213 199 200 198 192 192 174 173 190 184 190 183 183 180 178 177 175 173 171 169 168 167 166
322 331 335 349 5 356 333 314 296 275 251 237 236 242 239 223 204 203 199 184 162 166 161 177 173 176 168 172 177 176 175 174 173 171 169 167 166 165
331 343 344 350 353 349 333 319 315 306 289 251 244 248 247 235 207 186 181 180 189 181 162 156 151 140 149 168 173 173 173 172 171 170 169 167 165 163
327 334 356 355 345 344 328 316 316 319 326 306 271 262 248 230 212 203 195 190 178 177 172 156 152 139 133 135 161 168 168 168 169 170 170 167 164 163
323 326 331 343 341 335 324 301 298 303 301 294 281 259 248 226 213 207 201 194 186 181 170 154 153 143 137 138 152 166 164 161 166 171 172 171 170 169
300 309 318 327 325 320 312 298 301 307 294 290 284 274 261 240 215 205 200 196 187 175 170 159 152 159 146 143 152 158 163 164 166 170 175 177 178 178
284 298 301 298 303 304 292 294 298 291 283 285 286 278 268 253 208 178 159 141 129 148 162 164 152 155 151 149 153 155 155 170 172 170 173 177 183 183
299 305 301 284 277 279 287 284 274 272 274 278 278 284 303 7 184 160 148 138 131 130 133 147 155 155 153 148 154 160 159 167 175 174 172 177 187 193
326 307 295 280 263 261 269 267 275 285 281 279 285 287 265 120 119 140 144 143 147 153 147 134 123 122 136 150 158 165 163 163 171 172 172 181 192 197
309 289 291 288 277 264 266 269 264 261 254 239 241 215 200 178 156 133 141 149 150 151 151 149 142 126 106 73 151 165 169 170 169 172 169 179 194 199
257 265 272 274 274 264 253 248 248 242 219 209 218 214 189 173 162 159 157 153 152 153 155 155 158 155 156 161 178 179 169 168 168 174 180 179 192 198
235 248 258 261 263 263 254 243 235 228 211 206 203 203 194 183 174 174 171 169 162 156 160 168 176 174 170 166 163 176 182 168 170 179 182 180 173 175
252 250 249 250 249 251 248 242 232 221 211 204 205 200 197 190 187 182 177 174 169 169 178 186 189 172 138 124 128 140 162 176 174 173 174 173 180 185
252 257 254 250 247 245 243 238 237 231 219 212 208 202 199 194 191 187 181 178 180 178 176 169 161 162 163 163 164 162 160 153 147 164 176 177 173 193
247 250 251 247 243 243 240 237 237 236 228 218 211 203 197 196 193 186 183 182 178 177 166 160 162 166 174 169 166 164 165 168 166 168 206 200 182 159
Height
1481 1481 1481 1481 1482 1483 1485 1487 1489 1488 1489 1490 1492 1495 1498 1501 1503 1506 1509 1513 1517 1520 1522 1525 1528 1531 1535 1538 1541 1544 1547 1549 1551 1553 1555 1557 1558 1560
1478 1478 1477 1477 1477 1478 1479 1481 1483 1484 1484 1485 1487 1489 1492 1495 1498 1501 1504 1507 1511 1514 1518 1521 1524 1527 1530 1534 1537 1540 1543 1545 1548 1550 1552 1554 1556 1557
1475 1474 1474 1473 1473 1473 1474 1475 1477 1478 1479 1480 1482 1485 1486 1489 1491 1495 1498 1501 1504 1508 1512 1516 1519 1522 1525 1529 1532 1536 1539 1542 1544 1547 1549 1551 1553 1555
1472 1471 1470 1470 1469 1469 1469 1470 1471 1473 1474 1475 1477 1479 1481 1483 1486 1489 1491 1495 1498 1502 1506 1510 1513 1517 1520 1524 1528 1531 1534 1538 1541 1543 1546 1548 1550 1552
1469 1468 1467 1466 1465 1465 1465 1465 1466 1467 1469 1470 1471 1473 1475 1478 1481 1483 1486 1488 1492 1495 1499 1503 1507 1511 1515 1519 1523 1526 1530 1533 1536 1539 1542 1544 1547 1549
1466 1465 1463 1462 1461 1462 1461 1462 1462 1463 1464 1465 1466 1468 1470 1472 1475 1477 1480 1482 1485 1489 1492 1496 1501 1505 1509 1513 1517 1521 1525 1528 1532 1535 1538 1540 1543 1545
1463 1462 1460 1459 1458 1458 1458 1458 1458 1458 1459 1460 1461 1463 1465 1467 1469 1471 1474 1476 1479 1482 1486 1489 1494 1498 1502 1506 1511 1515 1519 1523 1527 1530 1534 1536 1539 1541
1461 1459 1458 1457 1456 1455 1455 1455 1455 1455 1455 1456 1457 1458 1459 1461 1464 1466 1469 1471 1474 1477 1480 1483 1487 1490 1494 1498 1503 1508 1513 1517 1521 1525 1529 1532 1535 1537
1459 1458 1456 1455 1454 1453 1452 1452 1452 1452 1452 1452 1452 1453 1455 1457 1459 1461 1463 1465 1467 1470 1475 1477 1480 1483 1488 1492 1497 1502 1507 1511 1516 1520 1524 1527 1531 1533
1458 1456 1455 1453 1452 1451 1450 1449 1449 1448 1448 1448 1449 1449 1451 1452 1454 1456 1458 1461 1464 1466 1469 1472 1474 1478 1482 1486 1491 1496 1501 1506 1510 1515 1518 1522 1526 1529
1457 1455 1453 1452 1451 1449 1448 1447 1446 1446 1446 1445 1445 1446 1446 1448 1449 1452 1454 1456 1458 1460 1463 1466 1469 1473 1477 1481 1485 1490 1495 1500 1505 1509 1513 1517 1521 1524
1455 1454 1452 1450 1449 1448 1446 1445 1444 1444 1443 1443 1442 1442 1443 1443 1445 1446 1448 1450 1452 1455 1457 1461 1464 1468 1472 1476 1480 1485 1490 1495 1500 1504 1508 1512 1516 1519
1454 1452 1451 1449 1447 1446 1445 1444 1443 1442 1441 1440 1440 1439 1439 1439 1440 1441 1443 1445 1447 1449 1452 1456 1459 1462 1466 1471 1476 1479 1484 1489 1494 1499 1503 1507 1511 1514
1453 1451 1449 1448 1446 1445 1443 1442 1441 1440 1439 1438 1437 1436 1436 1436 1436 1437 1438 1440 1443 1445 1448 1451 1453 1457 1461 1465 1470 1474 1479 1484 1489 1494 1498 1502 1506 1509
1452 1450 1448 1447 1445 1444 1443 1441 1440 1439 1438 1437 1435 1434 1433 1433 1433 1433 1434 1436 1439 1441 1444 1446 1449 1453 1457 1460 1464 1469 1474 1480 1484 1488 1493 1497 1501 1504
1450 1448 1447 1445 1444 1443 1442 1440 1439 1438 1436 1435 1434 1432 1431 1430 1430 1430 1432 1433 1435 1437 1440 1443 1446 1449 1453 1457 1461 1465 1470 1474 1479 1483 1488 1493 1497 1500
1448 1447 1445 1444 1443 1441 1440 1439 1438 1436 1435 1434 1432 1431 1430 1429 1428 1428 1429 1431 1433 1435 1437 1441 1443 1447 1450 1454 1458 1462 1466 1470 1475 1479 1483 1487 1491 1495
1446 1444 1443 1442 1441 1440 1439 1437 1436 1435 1433 1432 1431 1430 1429 1428 1428 1428 1428 1430 1431 1433 1436 1438 1441 1444 1448 1452 1456 1458 1463 1467 1471 1475 1479 1483 1486 1490
1443 1441 1440 1440 1439 1438 1437 1436 1434 1433 1432 1431 1430 1429 1429 1428 1428 1428 1428 1429 1430 1432 1434 1437 1439 1442 1445 1448 1452 1457 1460 1464 1468 1471 1475 1478 1482 1486
1439 1438 1437 1437 1436 1435 1435 1434 1433 1432 1430 1430 1429 1428 1428 1427 1427 1427 1428 1429 1430 1431 1433 1435 1437 1440 1443 1446 1450 1453 1457 1461 1464 1467 1471 1475 1479 1482
1436 1435 1434 1434 1433 1432 1432 1431 1430 1429 1428 1428 1427 1427 1426 1426 1426 1426 1427 1428 1429 1430 1432 1433 1436 1439 1442 1446 1448 1451 1455 1458 1461 1464 1468 1471 1474 1476
1432 1431 1431 1430 1429 1429 1428 1428 1427 1426 1426 1425 1424 1424 1424 1424 1424 1425 1425 1426 1427 1428 1430 1433 1435 1438 1440 1443 1445 1448 1451 1455 1458 1461 1464 1467 1468 1470
1428 1427 1426 1426 1425 1425 1424 1423 1423 1422 1422 1422 1421 1421 1421 1421 1422 1423 1424 1425 1426 1427 1429 1431 1433 1436 1438 1441 1443 1445 1448 1451 1454 1457 1460 1462 1465 1467